WJA531 CYEG-CYLW

Flight info

Callsign WJA531
Flight time 0h 50m
Altitude 36000
Route ANDIE DCT NADPI DCT ENDBY DCT HUMEK DCT WTMAN
Aircraft B738/M-SDE2E3FGHIRWXY/LB1

Departure

Time 2026-05-04 14:02
Airport Edmonton International Airport (CYEG)

Arrival

Time 2026-05-04 14:52
Airport Kelowna International Airport (CYLW)
Time Latitude Longitude Altitude Speed Heading
2026-05-04 13:35 53.30922 -113.58600 2333 ft 0 kts 86°
2026-05-04 13:53 53.30922 -113.58610 2332 ft 2 kts 86°
2026-05-04 13:54 53.30920 -113.58660 2332 ft 2 kts 86°
2026-05-04 13:54 53.30919 -113.58685 2332 ft 2 kts 86°
2026-05-04 13:54 53.30918 -113.58735 2332 ft 2 kts 87°
2026-05-04 13:55 53.30917 -113.58761 2332 ft 2 kts 104°
2026-05-04 13:55 53.30938 -113.58794 2332 ft 1 kts 169°
2026-05-04 13:55 53.30944 -113.58795 2332 ft 1 kts 178°
2026-05-04 13:56 53.30947 -113.58795 2332 ft 0 kts 175°
2026-05-04 13:58 53.30856 -113.58847 2332 ft 3 kts 260°
2026-05-04 13:58 53.30850 -113.58993 2332 ft 14 kts 266°
2026-05-04 13:58 53.30844 -113.59107 2332 ft 8 kts 265°
2026-05-04 13:59 53.30839 -113.59203 2332 ft 7 kts 263°
2026-05-04 13:59 53.30833 -113.59292 2332 ft 8 kts 265°
2026-05-04 13:59 53.30848 -113.59454 2332 ft 0 kts 316°
2026-05-04 14:00 53.30904 -113.59567 2332 ft 5 kts 291°
2026-05-04 14:00 53.30933 -113.59570 2332 ft 4 kts 29°
2026-05-04 14:01 53.30939 -113.59563 2332 ft 0 kts 37°
2026-05-04 14:01 53.30965 -113.59532 2332 ft 25 kts 34°
2026-05-04 14:01 53.32054 -113.58262 2333 ft 156 kts 34°
2026-05-04 14:02 53.33021 -113.57122 2744 ft 174 kts 32°
2026-05-04 14:02 53.34005 -113.56057 3584 ft 169 kts 16°
2026-05-04 14:02 53.35151 -113.56078 4145 ft 172 kts 338°
2026-05-04 14:02 53.36208 -113.57082 4665 ft 182 kts 324°
2026-05-04 14:03 53.37106 -113.58641 5157 ft 197 kts 307°
2026-05-04 14:03 53.37658 -113.60850 5643 ft 218 kts 286°
2026-05-04 14:03 53.37651 -113.63483 6118 ft 243 kts 264°
2026-05-04 14:03 53.36832 -113.66139 6618 ft 275 kts 233°
2026-05-04 14:04 53.33085 -113.68591 7898 ft 308 kts 191°
2026-05-04 14:04 53.30958 -113.69000 8673 ft 311 kts 189°
2026-05-04 14:04 53.28818 -113.69592 9378 ft 313 kts 198°
2026-05-04 14:05 53.25345 -113.73349 10490 ft 302 kts 244°
2026-05-04 14:05 53.24305 -113.76431 10989 ft 308 kts 250°
2026-05-04 14:05 53.23283 -113.79617 11642 ft 315 kts 248°
2026-05-04 14:06 53.22168 -113.82699 12457 ft 316 kts 246°
2026-05-04 14:06 53.20949 -113.85799 13037 ft 324 kts 245°
2026-05-04 14:06 53.19673 -113.88897 13684 ft 329 kts 244°
2026-05-04 14:06 53.18349 -113.92049 14383 ft 332 kts 244°
2026-05-04 14:07 53.17032 -113.95180 15023 ft 335 kts 245°
2026-05-04 14:07 53.15692 -113.98370 15675 ft 338 kts 245°
2026-05-04 14:07 53.14350 -114.01559 16425 ft 338 kts 246°
2026-05-04 14:07 53.12987 -114.04817 16913 ft 345 kts 246°
2026-05-04 14:08 53.11630 -114.08052 17654 ft 344 kts 246°
2026-05-04 14:08 53.10242 -114.11354 18228 ft 348 kts 247°
2026-05-04 14:08 53.08869 -114.14621 18780 ft 352 kts 247°
2026-05-04 14:08 53.07468 -114.17945 19469 ft 353 kts 248°
2026-05-04 14:09 53.04621 -114.24699 20440 ft 364 kts 248°
2026-05-04 14:09 53.03173 -114.28131 21029 ft 365 kts 248°
2026-05-04 14:10 53.00209 -114.35129 21999 ft 374 kts 248°
2026-05-04 14:10 52.98725 -114.38619 22551 ft 376 kts 248°
2026-05-04 14:10 52.97236 -114.42169 22963 ft 380 kts 249°
2026-05-04 14:10 52.95739 -114.45828 23375 ft 384 kts 249°
2026-05-04 14:11 52.94252 -114.49491 23912 ft 386 kts 249°
2026-05-04 14:11 52.91251 -114.56889 24706 ft 389 kts 249°
2026-05-04 14:11 52.89738 -114.60586 25156 ft 391 kts 250°
2026-05-04 14:12 52.88211 -114.64320 25595 ft 392 kts 250°
2026-05-04 14:12 52.86651 -114.68142 25814 ft 401 kts 249°
2026-05-04 14:12 52.83525 -114.75748 26625 ft 407 kts 249°
2026-05-04 14:13 52.81928 -114.79633 26991 ft 410 kts 248°
2026-05-04 14:13 52.80313 -114.83536 27478 ft 410 kts 248°
2026-05-04 14:13 52.78712 -114.87402 27812 ft 414 kts 248°
2026-05-04 14:13 52.77079 -114.91351 28062 ft 419 kts 248°
2026-05-04 14:14 52.75421 -114.95337 28668 ft 416 kts 249°
2026-05-04 14:14 52.72114 -115.03292 29085 ft 428 kts 248°
2026-05-04 14:14 52.70441 -115.07294 29631 ft 425 kts 248°
2026-05-04 14:15 52.67072 -115.15346 30196 ft 432 kts 249°
2026-05-04 14:15 52.63651 -115.23492 30925 ft 434 kts 248°
2026-05-04 14:16 52.60215 -115.31660 31509 ft 440 kts 248°
2026-05-04 14:16 52.58460 -115.35826 31824 ft 442 kts 248°
2026-05-04 14:17 52.54946 -115.44130 32531 ft 444 kts 248°
2026-05-04 14:17 52.53185 -115.48274 32882 ft 445 kts 248°
2026-05-04 14:17 52.49658 -115.56568 33504 ft 448 kts 248°
2026-05-04 14:18 52.47871 -115.60761 33788 ft 450 kts 248°
2026-05-04 14:18 52.44241 -115.69270 34220 ft 457 kts 247°
2026-05-04 14:19 52.40625 -115.77697 34941 ft 455 kts 247°
2026-05-04 14:19 52.38797 -115.81950 35070 ft 459 kts 247°
2026-05-04 14:19 52.36958 -115.86226 35319 ft 460 kts 247°
2026-05-04 14:19 52.35118 -115.90482 35673 ft 457 kts 247°
2026-05-04 14:20 52.33302 -115.94668 36023 ft 454 kts 247°
2026-05-04 14:20 52.29633 -116.03138 36117 ft 457 kts 247°
2026-05-04 14:21 52.24169 -116.15713 36115 ft 457 kts 247°
2026-05-04 14:21 52.20493 -116.24138 36111 ft 456 kts 247°
2026-05-04 14:22 52.16817 -116.32534 36110 ft 455 kts 247°
2026-05-04 14:22 52.13120 -116.40959 36122 ft 458 kts 247°
2026-05-04 14:23 52.07606 -116.53452 36127 ft 454 kts 247°
2026-05-04 14:24 52.03925 -116.61764 36117 ft 455 kts 246°
2026-05-04 14:24 52.00211 -116.70148 36089 ft 460 kts 246°
2026-05-04 14:25 51.96530 -116.78389 36071 ft 452 kts 246°
2026-05-04 14:25 51.90966 -116.90848 36066 ft 455 kts 245°
2026-05-04 14:26 51.87261 -116.99095 36059 ft 453 kts 245°
2026-05-04 14:26 51.83574 -117.07279 36057 ft 454 kts 245°
2026-05-04 14:27 51.79859 -117.15511 36049 ft 456 kts 245°
2026-05-04 14:27 51.76122 -117.23737 36044 ft 457 kts 245°
2026-05-04 14:28 51.72345 -117.31966 36057 ft 458 kts 244°
2026-05-04 14:28 51.68104 -117.39766 36092 ft 468 kts 236°
2026-05-04 14:29 51.58720 -117.54402 36067 ft 470 kts 234°
2026-05-04 14:30 51.54026 -117.61669 36012 ft 469 kts 235°
2026-05-04 14:30 51.49413 -117.68846 35389 ft 458 kts 234°
2026-05-04 14:31 51.47151 -117.72374 34919 ft 456 kts 234°
2026-05-04 14:31 51.42633 -117.79447 33855 ft 453 kts 234°
2026-05-04 14:32 51.38164 -117.86436 32823 ft 448 kts 233°
2026-05-04 14:32 51.35960 -117.89871 32320 ft 445 kts 233°
2026-05-04 14:32 51.33739 -117.93327 31810 ft 443 kts 233°
2026-05-04 14:32 51.31555 -117.96722 31310 ft 440 kts 233°
2026-05-04 14:33 51.29360 -118.00129 30803 ft 437 kts 233°
2026-05-04 14:33 51.27205 -118.03469 30297 ft 434 kts 232°
2026-05-04 14:33 51.25057 -118.06795 29792 ft 432 kts 233°
2026-05-04 14:33 51.22889 -118.10147 29286 ft 429 kts 233°
2026-05-04 14:34 51.20762 -118.13432 28790 ft 426 kts 232°
2026-05-04 14:34 51.18653 -118.16684 28294 ft 423 kts 232°
2026-05-04 14:34 51.16563 -118.19904 27795 ft 421 kts 232°
2026-05-04 14:34 51.14484 -118.23103 27297 ft 418 kts 232°
2026-05-04 14:35 51.12383 -118.26331 26793 ft 416 kts 232°
2026-05-04 14:35 51.10332 -118.29478 26315 ft 413 kts 232°
2026-05-04 14:35 51.08258 -118.32656 25831 ft 410 kts 232°
2026-05-04 14:35 51.06229 -118.35760 25343 ft 407 kts 231°
2026-05-04 14:36 51.04219 -118.38831 24877 ft 404 kts 232°
2026-05-04 14:36 51.02206 -118.41901 24392 ft 401 kts 231°
2026-05-04 14:36 51.00204 -118.44954 23919 ft 398 kts 231°
2026-05-04 14:36 50.98210 -118.47990 23450 ft 395 kts 231°
2026-05-04 14:37 50.96222 -118.51012 22993 ft 392 kts 231°
2026-05-04 14:37 50.94289 -118.53946 22533 ft 390 kts 231°
2026-05-04 14:37 50.92336 -118.56909 22060 ft 387 kts 231°
2026-05-04 14:37 50.90410 -118.59827 21603 ft 385 kts 231°
2026-05-04 14:38 50.88466 -118.62769 21138 ft 382 kts 230°
2026-05-04 14:38 50.86557 -118.65654 20675 ft 379 kts 230°
2026-05-04 14:38 50.84666 -118.68508 20211 ft 376 kts 229°
2026-05-04 14:38 50.82763 -118.71378 19756 ft 374 kts 229°
2026-05-04 14:39 50.80906 -118.74174 19297 ft 371 kts 229°
2026-05-04 14:39 50.79052 -118.76964 18865 ft 368 kts 229°
2026-05-04 14:39 50.77222 -118.79717 18414 ft 365 kts 229°
2026-05-04 14:40 50.73555 -118.85216 17540 ft 360 kts 229°
2026-05-04 14:40 50.71759 -118.87907 17153 ft 355 kts 228°
2026-05-04 14:40 50.69968 -118.90587 16726 ft 352 kts 228°
2026-05-04 14:40 50.68211 -118.93207 16310 ft 350 kts 228°
2026-05-04 14:41 50.66362 -118.95721 15901 ft 350 kts 223°
2026-05-04 14:41 50.64418 -118.98004 15464 ft 349 kts 219°
2026-05-04 14:41 50.60459 -119.02334 14614 ft 345 kts 219°
2026-05-04 14:42 50.56564 -119.06661 13789 ft 340 kts 219°
2026-05-04 14:42 50.54657 -119.08817 13368 ft 338 kts 219°
2026-05-04 14:42 50.52775 -119.10952 12954 ft 337 kts 219°
2026-05-04 14:43 50.50869 -119.13116 12534 ft 334 kts 219°
2026-05-04 14:43 50.49006 -119.15228 12138 ft 332 kts 219°
2026-05-04 14:43 50.47131 -119.17351 11729 ft 330 kts 219°
2026-05-04 14:43 50.45277 -119.19449 11318 ft 329 kts 219°
2026-05-04 14:44 50.43438 -119.21525 10912 ft 327 kts 218°
2026-05-04 14:44 50.41603 -119.23595 10500 ft 322 kts 218°
2026-05-04 14:44 50.39807 -119.25617 10115 ft 314 kts 218°
2026-05-04 14:44 50.38064 -119.27578 9910 ft 301 kts 219°
2026-05-04 14:45 50.36395 -119.29456 9637 ft 296 kts 218°
2026-05-04 14:45 50.34734 -119.31327 9231 ft 297 kts 219°
2026-05-04 14:45 50.33049 -119.33235 8863 ft 296 kts 218°
2026-05-04 14:45 50.31387 -119.35117 8515 ft 295 kts 218°
2026-05-04 14:46 50.29729 -119.36990 8161 ft 294 kts 218°
2026-05-04 14:46 50.28065 -119.38866 7794 ft 292 kts 218°
2026-05-04 14:46 50.26431 -119.40611 7504 ft 284 kts 212°
2026-05-04 14:46 50.24638 -119.41691 7329 ft 275 kts 191°
2026-05-04 14:47 50.22714 -119.41788 6921 ft 274 kts 175°
2026-05-04 14:47 50.20851 -119.41363 6485 ft 266 kts 172°
2026-05-04 14:47 50.19096 -119.41000 6112 ft 248 kts 175°
2026-05-04 14:47 50.17422 -119.40775 5762 ft 232 kts 177°
2026-05-04 14:48 50.15863 -119.40586 5440 ft 218 kts 176°
2026-05-04 14:48 50.14405 -119.40384 5135 ft 205 kts 176°
2026-05-04 14:48 50.13024 -119.40189 4822 ft 197 kts 176°
2026-05-04 14:48 50.11700 -119.40007 4574 ft 184 kts 176°
2026-05-04 14:49 50.10465 -119.39837 4321 ft 176 kts 175°
2026-05-04 14:49 50.09269 -119.39670 4077 ft 172 kts 176°
2026-05-04 14:49 50.08066 -119.39505 3832 ft 173 kts 175°
2026-05-04 14:49 50.06882 -119.39338 3591 ft 170 kts 175°
2026-05-04 14:50 50.05705 -119.39174 3355 ft 169 kts 175°
2026-05-04 14:50 50.04533 -119.39013 3107 ft 167 kts 175°
2026-05-04 14:50 50.03368 -119.38851 2866 ft 167 kts 175°
2026-05-04 14:50 50.02226 -119.38689 2619 ft 165 kts 175°
2026-05-04 14:51 50.01086 -119.38527 2378 ft 161 kts 174°
2026-05-04 14:51 49.99991 -119.38367 2171 ft 158 kts 174°
2026-05-04 14:51 49.98895 -119.38224 1940 ft 158 kts 175°
2026-05-04 14:51 49.97803 -119.38090 1707 ft 157 kts 173°
2026-05-04 14:52 49.96724 -119.37929 1465 ft 157 kts 174°
2026-05-04 14:52 49.95680 -119.37787 1387 ft 132 kts 174°
2026-05-04 14:52 49.95015 -119.37695 1374 ft 62 kts 175°
2026-05-04 14:52 49.94796 -119.37666 1372 ft 11 kts 174°
2026-05-04 14:53 49.94762 -119.37705 1372 ft 6 kts 273°
2026-05-04 14:53 49.94788 -119.37776 1372 ft 9 kts 313°
2026-05-04 14:53 49.94844 -119.37816 1372 ft 9 kts 354°
2026-05-04 14:53 49.94901 -119.37823 1372 ft 7 kts 356°
2026-05-04 14:54 49.94933 -119.37826 1373 ft 1 kts 356°
2026-05-04 14:54 49.94957 -119.37839 1373 ft 6 kts 310°
2026-05-04 14:54 49.94967 -119.37897 1373 ft 2 kts 282°
2026-05-04 14:54 49.94967 -119.37901 1373 ft 0 kts 271°
2026-05-04 14:55 49.94960 -119.37943 1373 ft 4 kts 254°
2026-05-04 14:55 49.94962 -119.37982 1373 ft 2 kts 306°
2026-05-04 14:55 49.94975 -119.38005 1373 ft 1 kts 311°
2026-05-04 14:55 49.94978 -119.38010 1373 ft 0 kts 311°